This is the latest recevied weather packets stored in our database for station/object CE1RLP-34. If no packets are shown the sender has not sent any weather packets the latest 10 day(s).
| Time | Temp. | Humidity | Pressure | Rain* | Wind** | Luminosity | Snow |
|---|---|---|---|---|---|---|---|
| 1777508384 | 10° C | 10% | 1079.3 hPa | - | - | - | - |
| 1777506610 | 12.22° C | 9% | 1080 hPa | - | - | - | - |
| 1777505710 | 13.33° C | 9% | 1079.9 hPa | - | - | - | - |
| 1777504808 | 14.44° C | 9% | 1079.9 hPa | - | - | - | - |
| 1777503907 | 15.56° C | 8% | 1079.2 hPa | - | - | - | - |
| 1777503005 | 17.78° C | 7% | 1079.7 hPa | - | - | - | - |
| 1777502105 | 20° C | 6% | 1079.7 hPa | - | - | - | - |
| 1777501202 | 21.67° C | 6% | 1079.6 hPa | - | - | - | - |
| 1777500302 | 22.78° C | 5% | 1079.6 hPa | - | - | - | - |
| 1777499400 | 24.44° C | 5% | 1079.6 hPa | - | - | - | - |
| 1777498500 | 25° C | 5% | 1079.7 hPa | - | - | - | - |
| 1777497597 | 26.11° C | 5% | 1079.6 hPa | - | - | - | - |
| 1777496697 | 26.67° C | 5% | 1079.7 hPa | - | - | - | - |
| 1777495795 | 27.78° C | 4% | 1079.7 hPa | - | - | - | - |
| 1777494895 | 27.78° C | 5% | 1079.7 hPa | - | - | - | - |
| 1777493992 | 28.33° C | 3% | 1079.7 hPa | - | - | - | - |
| 1777493092 | 28.33° C | 3% | 1079.7 hPa | - | - | - | - |
| 1777492190 | 28.33° C | 3% | 1079.8 hPa | - | - | - | - |
| 1777491290 | 27.78° C | 3% | 1079.8 hPa | - | - | - | - |
| 1777490387 | 27.22° C | 3% | 1079.9 hPa | - | - | - | - |
| 1777489487 | 27.22° C | 3% | 1080 hPa | - | - | - | - |
| 1777488585 | 26.67° C | 4% | 1080.1 hPa | - | - | - | - |
| 1777487692 | 26.67° C | 4% | 1080.1 hPa | - | - | - | - |
| 1777486783 | 26.11° C | 4% | 1080 hPa | - | - | - | - |
| 1777485010 | 25.56° C | 4% | 1080.5 hPa | - | - | - | - |
* Rain since midnight (hover to see other rain measurements)
** Current wind speed in m/s (hover to see current wind gust speed)